Overview Statistics Trail Chart Weather Telemetry Raw packets
 

This is the latest recevied weather packets stored in our database for station/object KO6HRZ. If no packets are shown the sender has not sent any weather packets the latest 10 day(s).

<< 5 6 7 8 9 10 11 >>
Time Temp. Humidity Pressure Rain* Wind** Luminosity Snow
1788575343 22.22° C 53% 1011.3 hPa 0 mm - 4 W/m² -
1788574739 22.78° C 52% 1011.2 hPa 0 mm - 10 W/m² -
1788574135 23.33° C 46% 1011.2 hPa 0 mm - 17 W/m² -
1788573535 23.89° C 44% 1011.3 hPa 0 mm - 22 W/m² -
1788572933 23.89° C 42% 1011.4 hPa 0 mm - 28 W/m² -
1788572329 24.44° C 42% 1011.3 hPa 0 mm - 33 W/m² -
1788571726 25.56° C 39% 1011.2 hPa 0 mm - 95 W/m² -
1788571124 25.56° C 38% 1011.1 hPa 0 mm - 59 W/m² -
1788570520 26.11° C 37% 1010.9 hPa 0 mm - 111 W/m² -
1788569917 26.67° C 36% 1011.1 hPa 0 mm - 56 W/m² -
1788569314 27.22° C 35% 1011.1 hPa 0 mm - 52 W/m² -
1788568709 26.67° C 35% 1011 hPa 0 mm - 56 W/m² -
1788568106 26.67° C 35% 1011 hPa 0 mm - 125 W/m² -
1788567501 26.67° C 35% 1011.1 hPa 0 mm - 299 W/m² -
1788566896 27.22° C 32% 1011.4 hPa 0 mm - 59 W/m² -
1788566292 27.22° C 30% 1011.2 hPa 0 mm - 62 W/m² -
1788565688 27.78° C 31% 1011.2 hPa 0 mm - 399 W/m² -
1788565085 27.22° C 34% 1011.4 hPa 0 mm - 432 W/m² -
1788564483 27.78° C 36% 1011.5 hPa 0 mm - 462 W/m² -
1788563884 27.78° C 39% 1011.3 hPa 0 mm - 485 W/m² -
1788563276 26.67° C 40% 1011.5 hPa 0 mm - 510 W/m² -
1788562676 27.22° C 40% 1011.6 hPa 0 mm - 530 W/m² -
1788562074 27.78° C 40% 1011.7 hPa 0 mm - 558 W/m² -
1788561475 27.78° C 38% 1011.9 hPa 0 mm - 588 W/m² -
1788560871 27.22° C 40% 1011.8 hPa 0 mm - 607 W/m² -

* Rain latest hour (hover to see other rain measurements)
** Current wind speed in m/s (hover to see current wind gust speed)